Washington, GA

7:11 PM EDT on March 27, 2017 (GMT -0400)
Washington-Wilkes County

Weather History for KIIY - July, 2013

Change the Weather History Date:

Monday, July 8, 2013

  Actual Average (KDBN) Record (KDBN)
Temperature  
Mean Temperature 79 °F -  
Max Temperature 87 °F 93 °F 104 °F (1977)
Min Temperature 71 °F 68 °F 57 °F (2006)
Cooling Degree Days 14    
Growing Degree Days 29 (Base 50)    
Moisture  
Dew Point 74 °F    
Average Humidity 86    
Maximum Humidity 100    
Minimum Humidity 58    
Precipitation  
Precipitation 0.00 in - - ()
Sea Level Pressure  
Sea Level Pressure 30.17 in    
Wind  
Wind Speed 2 mph (SSW)    
Max Wind Speed 8 mph    
Max Gust Speed -    
Visibility 9 miles    
Events Rain , Thunderstorm    
Averages and records for this station are not official NWS values.
T = Trace of Precipitation, MM = Missing Value Source: NWS Daily Summary

Daily Weather History Graph

Daily Weather History Graph

Search for Another Location

Airport or City:

Trip Planner

Search our weather history database for the weather conditions in past years. The results will help you decide how hot, cold, wet, or windy it might be!

Date:

Astronomy

Jul. 08, 2013 Rise Set
Actual Time 6:27 AM EDT 8:44 PM EDT
Civil Twilight 5:59 AM EDT 9:13 PM EDT
Nautical Twilight 5:23 AM EDT 9:48 PM EDT
Astronomical Twilight 4:45 AM EDT 10:26 PM EDT
Moon 6:51 AM EDT (7/8) 8:51 PM EDT (7/8)
Length of Visible Light 15h 14m
Length of Day
14h 17m
New Moon, 0% of the Moon is Illuminated
Jul 8
New Moon
Jul 15
First Quarter
Jul 22
Full
Jul 29
Last Quarter
Aug 6
New

Hourly Weather History & Observations

Time (EDT) Temp. Heat Index Dew Point Humidity Pressure Visibility Wind Dir Wind Speed Gust Speed Precip Events Conditions
12:15 AM 75.2 °F - 75.2 °F 100% 30.19 in 7.0 mi West 8.1 mph - N/A Rain , Thunderstorm Rain
12:35 AM 75.2 °F - 75.2 °F 100% 30.20 in 10.0 mi WNW 5.8 mph - N/A Rain , Thunderstorm Light Thunderstorms and Rain
12:55 AM 75.2 °F - 75.2 °F 100% 30.19 in 10.0 mi WNW 3.5 mph - N/A Rain , Thunderstorm Light Thunderstorms and Rain
1:15 AM 75.2 °F - 75.2 °F 100% 30.19 in 10.0 mi Calm Calm - N/A Rain , Thunderstorm Light Thunderstorms and Rain
1:35 AM 75.2 °F - 75.2 °F 100% 30.19 in 7.0 mi Calm Calm - N/A Rain , Thunderstorm Thunderstorms and Rain
1:55 AM 75.2 °F - 75.2 °F 100% 30.18 in 7.0 mi Calm Calm - N/A Rain Rain
2:15 AM 75.2 °F - 75.2 °F 100% 30.19 in 7.0 mi Calm Calm - N/A Rain Light Rain
2:35 AM 75.2 °F - 75.2 °F 100% 30.18 in 7.0 mi Calm Calm - N/A Rain Light Rain
2:55 AM 75.2 °F - 75.2 °F 100% 30.17 in 7.0 mi Calm Calm - N/A   Scattered Clouds
3:15 AM 75.2 °F - 75.2 °F 100% 30.16 in 5.0 mi Calm Calm - N/A   Scattered Clouds
3:35 AM 75.2 °F - 75.2 °F 100% 30.16 in 7.0 mi Calm Calm - N/A Rain Light Rain
3:55 AM 75.2 °F - 75.2 °F 100% 30.16 in 7.0 mi Calm Calm - N/A   Scattered Clouds
4:15 AM 75.2 °F - 75.2 °F 100% 30.15 in 4.0 mi Calm Calm - N/A   Scattered Clouds
4:35 AM 75.2 °F - 75.2 °F 100% 30.15 in 5.0 mi Calm Calm - N/A   Mostly Cloudy
4:55 AM 75.2 °F - 75.2 °F 100% 30.15 in 1.2 mi Calm Calm - N/A   Overcast
5:15 AM 73.4 °F - 73.4 °F 100% 30.16 in 4.0 mi South 3.5 mph - N/A   Mostly Cloudy
5:35 AM 73.4 °F - 73.4 °F 100% 30.17 in 2.5 mi Calm Calm - N/A   Overcast
5:55 AM 73.4 °F - 73.4 °F 100% 30.17 in 7.0 mi Calm Calm - N/A   Mostly Cloudy
6:15 AM 71.6 °F - 71.6 °F 100% 30.18 in 10.0 mi WNW 3.5 mph - N/A   Clear
6:55 AM 73.4 °F - 73.4 °F 100% 30.19 in 10.0 mi Calm Calm - N/A   Clear
7:15 AM 73.4 °F - 73.4 °F 100% 30.18 in 10.0 mi Calm Calm - N/A   Clear
7:35 AM 73.4 °F - 73.4 °F 100% 30.19 in 10.0 mi Calm Calm - N/A   Clear
7:55 AM 73.4 °F - 73.4 °F 100% 30.19 in 10.0 mi Calm Calm - N/A   Clear
8:15 AM 73.4 °F - 73.4 °F 100% 30.20 in 10.0 mi Calm Calm - N/A   Clear
8:35 AM 75.2 °F - 75.2 °F 100% 30.20 in 10.0 mi Calm Calm - N/A   Clear
8:55 AM 75.2 °F - 73.4 °F 94% 30.21 in 10.0 mi Calm Calm - N/A   Clear
9:15 AM 77.0 °F - 75.2 °F 94% 30.21 in 10.0 mi Calm Calm - N/A   Clear
9:35 AM 77.0 °F - 77.0 °F 100% 30.21 in 10.0 mi Calm Calm - N/A   Clear
9:55 AM 77.0 °F - 77.0 °F 100% 30.21 in 10.0 mi Calm Calm - N/A   Clear
10:15 AM 78.8 °F - 77.0 °F 94% 30.21 in 10.0 mi Calm Calm - N/A   Clear
10:35 AM 80.6 °F 87.1 °F 77.0 °F 89% 30.21 in 10.0 mi Calm Calm - N/A   Scattered Clouds
10:55 AM 80.6 °F 87.1 °F 77.0 °F 89% 30.22 in 10.0 mi Calm Calm - N/A   Clear
11:15 AM 80.6 °F 86.2 °F 75.2 °F 84% 30.22 in 10.0 mi Calm Calm - N/A   Scattered Clouds
11:35 AM 80.6 °F 85.4 °F 73.4 °F 79% 30.22 in 10.0 mi WNW 3.5 mph - N/A   Scattered Clouds
11:55 AM 80.6 °F 85.4 °F 73.4 °F 79% 30.22 in 10.0 mi NW 4.6 mph - N/A   Scattered Clouds
12:15 PM 82.4 °F 88.2 °F 73.4 °F 74% 30.22 in 10.0 mi SSE 3.5 mph - N/A   Scattered Clouds
12:35 PM 82.4 °F 88.2 °F 73.4 °F 74% 30.21 in 10.0 mi Calm Calm - N/A   Scattered Clouds
12:55 PM 82.4 °F 87.2 °F 71.6 °F 70% 30.21 in 10.0 mi Calm Calm - N/A   Scattered Clouds
1:15 PM 82.4 °F 87.2 °F 71.6 °F 70% 30.21 in 10.0 mi West 3.5 mph - N/A   Scattered Clouds
1:35 PM 82.4 °F 87.2 °F 71.6 °F 70% 30.20 in 10.0 mi Calm Calm - N/A   Clear
1:55 PM 82.4 °F 87.2 °F 71.6 °F 70% 30.20 in 10.0 mi Calm Calm - N/A   Scattered Clouds
2:15 PM 84.2 °F 90.9 °F 73.4 °F 70% 30.19 in 10.0 mi West 3.5 mph - N/A   Scattered Clouds
2:35 PM 86.0 °F 91.8 °F 71.6 °F 62% 30.18 in 10.0 mi Calm Calm - N/A   Scattered Clouds
2:55 PM 86.0 °F 91.8 °F 71.6 °F 62% 30.17 in 10.0 mi Calm Calm - N/A   Scattered Clouds
3:15 PM 86.0 °F 91.8 °F 71.6 °F 62% 30.16 in 10.0 mi Calm Calm - N/A   Scattered Clouds
3:35 PM 86.0 °F 91.8 °F 71.6 °F 62% 30.16 in 10.0 mi South 3.5 mph - N/A   Clear
3:55 PM 86.0 °F 91.8 °F 71.6 °F 62% 30.15 in 10.0 mi South 3.5 mph - N/A   Clear
4:15 PM 86.0 °F 91.8 °F 71.6 °F 62% 30.14 in 10.0 mi SSE 3.5 mph - N/A   Clear
4:35 PM 86.0 °F 91.8 °F 71.6 °F 62% 30.14 in 10.0 mi South 4.6 mph - N/A   Scattered Clouds
4:55 PM 86.0 °F 91.8 °F 71.6 °F 62% 30.14 in 10.0 mi SW 4.6 mph - N/A   Clear
5:15 PM 86.0 °F 91.8 °F 71.6 °F 62% 30.14 in 10.0 mi South 5.8 mph - N/A   Scattered Clouds
5:35 PM 87.8 °F 93.8 °F 71.6 °F 58% 30.14 in 10.0 mi SSW 3.5 mph - N/A   Scattered Clouds
5:55 PM 86.0 °F 93.4 °F 73.4 °F 66% 30.13 in 10.0 mi South 5.8 mph - N/A   Clear
6:15 PM 86.0 °F 91.8 °F 71.6 °F 62% 30.13 in 10.0 mi SSW 4.6 mph - N/A   Scattered Clouds
6:35 PM 86.0 °F 91.8 °F 71.6 °F 62% 30.13 in 10.0 mi SSW 3.5 mph - N/A   Clear
6:55 PM 86.0 °F 91.8 °F 71.6 °F 62% 30.14 in 10.0 mi South 4.6 mph - N/A   Clear
7:15 PM 86.0 °F 91.8 °F 71.6 °F 62% 30.14 in 10.0 mi Calm Calm - N/A   Clear
7:35 PM 86.0 °F 93.4 °F 73.4 °F 66% 30.13 in 10.0 mi South 3.5 mph - N/A   Clear
7:55 PM 86.0 °F 96.9 °F 77.0 °F 74% 30.13 in 10.0 mi Calm Calm - N/A   Clear
8:15 PM 82.4 °F 90.9 °F 77.0 °F 84% 30.13 in 10.0 mi South 4.6 mph - N/A   Clear
8:35 PM 80.6 °F 85.4 °F 73.4 °F 79% 30.13 in 10.0 mi South 5.8 mph - N/A   Clear
8:55 PM 80.6 °F 87.1 °F 77.0 °F 89% 30.14 in 10.0 mi SSE 4.6 mph - N/A   Clear
9:15 PM 80.6 °F 88.1 °F 78.8 °F 94% 30.14 in 10.0 mi South 4.6 mph - N/A   Clear
9:35 PM 80.6 °F 88.1 °F 78.8 °F 94% 30.16 in 10.0 mi South 3.5 mph - N/A   Clear
9:55 PM 80.6 °F 88.1 °F 78.8 °F 94% 30.17 in 10.0 mi South 3.5 mph - N/A   Clear
10:15 PM 78.8 °F - 78.8 °F 100% 30.17 in 10.0 mi Calm Calm - N/A   Clear
10:35 PM 78.8 °F - 77.0 °F 94% 30.18 in 10.0 mi SSE 3.5 mph - N/A   Clear
10:55 PM 77.0 °F - 77.0 °F 100% 30.18 in 10.0 mi South 4.6 mph - N/A   Clear
11:15 PM 77.0 °F - 75.2 °F 94% 30.18 in 10.0 mi Calm Calm - N/A   Clear
11:35 PM 77.0 °F - 75.2 °F 94% 30.17 in 10.0 mi South 3.5 mph - N/A   Clear
11:55 PM 75.2 °F - 75.2 °F 100% 30.17 in 10.0 mi Calm Calm - N/A   Clear